[[{"header":{"parameterUnit":"m.s-1","parameterCategory":1,"la1":30.2991,"la2":30.254,"lo1":-89.0895,"lo2":-89.0444,"dx":0.0017,"dy":0.0017,"nx":28,"ny":28,"refTime":"2022-12-16T09:00:00:Z","depth":0,"parameterNumber":2,"parameterNumberName":"U-component_of_WINDS"},"data":[0,0,0,0,0,0,0,0,0,0,0,0,0,0,0,0,0,0,0,0,0,0,0,0,0,0,0,0,0,0,0,0,0,0,0,0,0,0,0,0,0,0,0,0,0,0,0,0,0,0,0,0,0,0,0,0,0,0,0.8785,0.8784,0,0.8699,0.8698,0.8697,0.8662,0.8662,0.8662,0.8662,0.8571,0.8569,0.8566,0,0,0,0,0,0,0,0,0,0,0,0,0,0.8916,0.8914,0.8785,0.8784,0.8783,0.8699,0.8698,0.8696,0.8662,0.8662,0.8662,0.8663,0.8572,0.8569,0.8566,0,0,0,0,0,0,0,0,0,0,0,0,0,0.8848,0.8913,0.8785,0.8755,0.8752,0.8699,0.8698,0.8696,0.8662,0.8662,0.8662,0.8663,0.8573,0.8569,0.8566,0.8535,0,0,0.8554,0.8552,0,0,0,0,0,0,0,0,0.8851,0.8843,0.8761,0.8757,0.8753,0.8691,0.8711,0.8642,0.8662,0.8696,0.8662,0.8663,0.8611,0.8604,0.8587,0.8531,0.8527,0.8553,0.8551,0.8549,0.8548,0,0,0,0,0,0,0,0.8856,0.8846,0.8751,0.8759,0.8755,0.8745,0.8736,0.8697,0.8653,0.8693,0.869,0.8681,0.8609,0.8591,0.8585,0.8526,0.8553,0.855,0.8547,0.8546,0.844,0.844,0,0,0,0,0,0,0.8866,0.885,0.8753,0.8748,0.8804,0.8743,0.8732,0.8711,0.8653,0.8644,0.868,0.8679,0.8597,0.8589,0.8581,0.8542,0.8549,0.8546,0.8543,0.8441,0.844,0.844,0,0,0,0,0,0,0.8869,0.8858,0.8757,0.8798,0.8785,0.874,0.8716,0.8709,0.8691,0.8644,0.8635,0.867,0.8597,0.8587,0.8547,0.8538,0.8544,0.854,0.8441,0.8441,0.844,0.8462,0,0,0,0,0,0,0.8873,0.8859,0.8848,0.8798,0.8783,0.8725,0.8716,0.8707,0.8685,0.8682,0.8632,0.8624,0.8597,0.8553,0.8543,0.8533,0.8537,0.8442,0.8441,0.844,0.8462,0.8462,0.8463,0,0,0,0,0,0.8878,0.8857,0.8847,0.8836,0.8768,0.8724,0.8715,0.8685,0.8684,0.8672,0.8641,0.8625,0.8541,0.8549,0.8538,0.8526,0.8442,0.8441,0.844,0.8462,0.8462,0.8463,0,0,0,0,0,0,0.8905,0.885,0.8839,0.8801,0.8768,0.8719,0.8702,0.8687,0.8652,0.8651,0.8615,0.8604,0.8567,0.8543,0.8553,0.8494,0.849,0.8487,0.8511,0.8511,0.8511,0.8517,0.8534,0,0,0,0,0,0.8907,0.8877,0.883,0.8801,0.8785,0.8747,0.8727,0.8707,0.8671,0.8656,0.8623,0.8587,0.8553,0.853,0.8496,0.8459,0.8447,0.8445,0.8446,0.8446,0.8443,0.8421,0.842,0.8436,0.8436,0.8436,0,0,0.8909,0.8876,0.8859,0.8806,0.8778,0.8747,0.8735,0.8703,0.868,0.8651,0.8611,0.8586,0.8544,0.8506,0.8487,0.8484,0.8436,0.8445,0.8445,0.8442,0.842,0.8419,0.8417,0.8436,0.8436,0.8436,0,0,0.8898,0.887,0.8843,0.8816,0.8774,0.8749,0.8742,0.8696,0.8678,0.8638,0.8616,0.8588,0.8529,0.85,0.8477,0.8457,0.8441,0.8447,0.8448,0.8427,0.8426,0.8425,0.8417,0.8415,0.8445,0.8445,0.8445,0,0.8907,0.8861,0.8831,0.88,0.8778,0.8752,0.8724,0.8698,0.8647,0.8631,0.8629,0.8555,0.8525,0.848,0.8475,0.8458,0.8449,0.8452,0.8429,0.8427,0.8426,0.8418,0.8415,0.8446,0.8446,0.8445,0.8445,0,0.8873,0.8841,0.8824,0.8777,0.8752,0.8723,0.8688,0.8667,0.8649,0.8624,0.8584,0.8547,0.8505,0.8493,0.8475,0.8445,0.8444,0.8436,0.8432,0.8425,0.8417,0.8414,0.8447,0.8447,0.8446,0.8446,0,0,0.8875,0.8812,0.8807,0.8785,0.8737,0.8712,0.8682,0.8641,0.8624,0.8589,0.8562,0.8514,0.8506,0.8481,0.846,0.8442,0.8428,0.8436,0.8434,0.8435,0.8392,0.8398,0.8395,0.8418,0.8417,0.8417,0.8395,0,0.8857,0.8803,0.8776,0.8732,0.8703,0.8678,0.8652,0.8619,0.8595,0.8566,0.8539,0.8505,0.8498,0.8482,0.8464,0.8434,0.8419,0.8435,0.8391,0.839,0.8402,0.8391,0.8396,0.8378,0.8392,0.8391,0.8391,0,0.8829,0.8796,0.875,0.8707,0.8693,0.867,0.8631,0.8604,0.8567,0.855,0.8523,0.8503,0.8469,0.8469,0.8422,0.8434,0.8414,0.8397,0.8396,0.8389,0.8389,0.8383,0.8371,0.8369,0.8386,0.8386,0.8387,0,0.8834,0.8779,0.8744,0.8726,0.8675,0.8659,0.8637,0.86,0.8578,0.8544,0.8529,0.8492,0.8471,0.8442,0.8412,0.8414,0.8367,0.8364,0.8352,0.8353,0.8342,0.8343,0.8326,0.8332,0.8332,0.8332,0.8332,0,0.8817,0.8789,0.8746,0.8725,0.8693,0.8663,0.8632,0.8608,0.8576,0.8549,0.8525,0.85,0.8463,0.8433,0.8409,0.8374,0.8364,0.835,0.8343,0.8351,0.8353,0.8337,0.8337,0.8331,0.8331,0.8331,0.8332,0,0.8817,0.8787,0.8747,0.8703,0.8691,0.867,0.8631,0.8609,0.8584,0.855,0.8541,0.8502,0.8465,0.8433,0.8384,0.8369,0.8332,0.8325,0.8345,0.8341,0.8331,0.8332,0.8302,0.8296,0.8307,0.8307,0.8307,0,0.8807,0.8786,0.8739,0.872,0.8698,0.8667,0.8645,0.8614,0.8592,0.8548,0.8532,0.8494,0.8462,0.8405,0.8372,0.8335,0.8326,0.8318,0.832,0.8328,0.8325,0.8326,0.8323,0.8318,0.8318,0.8318,0.8318,0,0.8793,0.8779,0.8748,0.8712,0.8687,0.8657,0.8626,0.8611,0.8574,0.855,0.8514,0.8489,0.844,0.8403,0.8362,0.8339,0.8322,0.8318,0.8313,0.832,0.8332,0.8325,0.8344,0.8318,0.8318,0.8318,0.8318,0.8318,0.8787,0.8767,0.8731,0.8697,0.8671,0.8643,0.8621,0.8594,0.8563,0.8522,0.8505,0.8468,0.8431,0.8375,0.8352,0.8322,0.8318,0.8311,0.8309,0.8308,0.8309,0.8338,0.8314,0.8314,0.8314,0.8314,0.8314,0,0.877,0.8747,0.8716,0.8675,0.8648,0.8637,0.8602,0.858,0.8548,0.8516,0.8486,0.8443,0.8407,0.8372,0.8334,0.8317,0.8308,0.8307,0.8308,0.8302,0.8314,0.8322,0.8315,0.8315,0.8315,0.8315,0.8315,0.8315,0.8759,0.8724,0.8707,0.8659,0.8635,0.8599,0.858,0.8554,0.8528,0.8483,0.8453,0.8431,0.8397,0.8357,0.8323,0.8314,0.83,0.8302,0.829,0.8301,0.8302,0.8302,0.8309,0.8299,0.8299,0.828,0.828,0.828]},{"header":{"parameterUnit":"m.s-1","parameterCategory":1,"la1":30.2991,"la2":30.254,"lo1":-89.0895,"lo2":-89.0444,"dx":0.0017,"dy":0.0017,"nx":28,"ny":28,"refTime":"2022-12-16T09:00:00:Z","depth":0,"parameterNumber":3,"parameterNumberName":"V-component_of_WINDS"},"data":[0,0,0,0,0,0,0,0,0,0,0,0,0,0,0,0,0,0,0,0,0,0,0,0,0,0,0,0,0,0,0,0,0,0,0,0,0,0,0,0,0,0,0,0,0,0,0,0,0,0,0,0,0,0,0,0,0,0,-4.9504,-4.9505,0,-4.9563,-4.9564,-4.9564,-4.9515,-4.9513,-4.9511,-4.9509,-4.9566,-4.9569,-4.9572,0,0,0,0,0,0,0,0,0,0,0,0,0,-4.9346,-4.935,-4.9504,-4.9505,-4.9506,-4.9563,-4.9564,-4.9564,-4.9516,-4.9513,-4.9511,-4.9509,-4.9565,-4.9569,-4.9573,0,0,0,0,0,0,0,0,0,0,0,0,0,-4.9411,-4.9351,-4.9504,-4.9488,-4.9488,-4.9563,-4.9564,-4.9565,-4.9516,-4.9513,-4.951,-4.9507,-4.9563,-4.9568,-4.9573,-4.9666,0,0,-4.9589,-4.9591,0,0,0,0,0,0,0,0,-4.9407,-4.9417,-4.949,-4.949,-4.9489,-4.9529,-4.9529,-4.9598,-4.9517,-4.9505,-4.9509,-4.9506,-4.9556,-4.9561,-4.9579,-4.9668,-4.9671,-4.9589,-4.9592,-4.9595,-4.9596,0,0,0,0,0,0,0,-4.9403,-4.9414,-4.9527,-4.9491,-4.949,-4.9477,-4.9483,-4.9542,-4.9547,-4.9506,-4.9503,-4.9511,-4.9555,-4.9574,-4.958,-4.9672,-4.9589,-4.9594,-4.9597,-4.9599,-4.984,-4.9843,0,0,0,0,0,0,-4.9401,-4.9411,-4.9525,-4.9529,-4.944,-4.9483,-4.9489,-4.9519,-4.9546,-4.9547,-4.9513,-4.9508,-4.9567,-4.9574,-4.9582,-4.9692,-4.9595,-4.9599,-4.9602,-4.9837,-4.9841,-4.9844,0,0,0,0,0,0,-4.9397,-4.9411,-4.9523,-4.9469,-4.9482,-4.9489,-4.9523,-4.9522,-4.9541,-4.9551,-4.9552,-4.9532,-4.9565,-4.9574,-4.9645,-4.9693,-4.9602,-4.9606,-4.9833,-4.9838,-4.9842,-4.9912,0,0,0,0,0,0,-4.9393,-4.941,-4.9446,-4.947,-4.9485,-4.9587,-4.9526,-4.9525,-4.955,-4.9544,-4.9569,-4.957,-4.9563,-4.9638,-4.9651,-4.9698,-4.961,-4.9828,-4.9835,-4.9841,-4.9906,-4.9919,-4.9931,0,0,0,0,0,-4.9388,-4.9463,-4.9449,-4.9463,-4.9531,-4.959,-4.9599,-4.959,-4.9554,-4.959,-4.9597,-4.957,-4.9686,-4.9646,-4.9659,-4.9709,-4.9825,-4.9833,-4.984,-4.99,-4.9917,-4.993,0,0,0,0,0,0,-4.9443,-4.9466,-4.945,-4.9536,-4.9562,-4.9582,-4.9627,-4.9607,-4.9643,-4.9635,-4.9622,-4.9628,-4.9703,-4.9713,-4.9668,-4.98,-4.975,-4.976,-4.9791,-4.9806,-4.9818,-4.9814,-4.9614,0,0,0,0,0,-4.9466,-4.9513,-4.953,-4.9604,-4.9618,-4.962,-4.9646,-4.9637,-4.9662,-4.9673,-4.9684,-4.9709,-4.9751,-4.9779,-4.9819,-4.9907,-4.9912,-4.9948,-4.9961,-4.9971,-4.998,-5.0027,-5.0044,-4.9869,-4.9869,-4.9869,0,0,-4.9512,-4.953,-4.9561,-4.9615,-4.9634,-4.9683,-4.963,-4.9683,-4.9719,-4.968,-4.9749,-4.9758,-4.9785,-4.9865,-4.9901,-4.9876,-5.0029,-4.998,-4.9988,-4.9992,-5.0037,-5.0053,-5.0068,-4.9874,-4.9873,-4.9872,0,0,-4.9621,-4.964,-4.9704,-4.9725,-4.9755,-4.9756,-4.9771,-4.9795,-4.98,-4.9869,-4.9841,-4.9882,-4.9955,-4.9976,-4.9996,-5.0113,-5.009,-5.0126,-5.0191,-5.0237,-5.0251,-5.0263,-5.0305,-5.032,-5.0136,-5.0136,-5.0136,0,-4.9675,-4.9748,-4.9739,-4.9795,-4.9819,-4.9789,-4.9852,-4.9872,-4.9913,-4.993,-4.9902,-4.9993,-5.0009,-5.0094,-5.0122,-5.014,-5.0156,-5.0123,-5.025,-5.0262,-5.0273,-5.0313,-5.0329,-5.014,-5.014,-5.0139,-5.0139,0,-4.9812,-4.9864,-4.9911,-4.9953,-4.9983,-5.0043,-5.0041,-5.0072,-5.0061,-5.0065,-5.0135,-5.0153,-5.0195,-5.0215,-5.0204,-5.0298,-5.0282,-5.0252,-5.0201,-5.0294,-5.0331,-5.0346,-5.0146,-5.0145,-5.0143,-5.0142,0,0,-4.9958,-4.9995,-5.0012,-5.0031,-5.0062,-5.0101,-5.0159,-5.0202,-5.0228,-5.0258,-5.0305,-5.0368,-5.0341,-5.0364,-5.0354,-5.0395,-5.0487,-5.036,-5.0361,-5.0383,-5.0592,-5.0614,-5.0632,-5.0472,-5.0475,-5.0477,-5.059,0,-5.0068,-5.0171,-5.0164,-5.026,-5.0307,-5.0278,-5.0329,-5.0353,-5.0358,-5.0398,-5.0403,-5.0447,-5.0409,-5.0422,-5.0461,-5.0468,-5.0529,-5.046,-5.0515,-5.0517,-5.0509,-5.0651,-5.0674,-5.078,-5.0604,-5.0606,-5.0608,0,-5.0211,-5.0247,-5.0348,-5.0372,-5.0392,-5.0437,-5.0476,-5.0515,-5.0541,-5.0542,-5.0568,-5.0552,-5.0609,-5.0557,-5.0636,-5.0589,-5.0611,-5.0618,-5.0622,-5.0626,-5.0568,-5.0659,-5.0813,-5.0829,-5.0631,-5.0629,-5.0627,0,-5.0307,-5.038,-5.045,-5.0467,-5.0497,-5.053,-5.0544,-5.0567,-5.0593,-5.0627,-5.0644,-5.0683,-5.0705,-5.0735,-5.073,-5.0693,-5.081,-5.0757,-5.0811,-5.0811,-5.0837,-5.0835,-5.0996,-5.0852,-5.0852,-5.0851,-5.0851,0,-5.043,-5.0493,-5.0493,-5.0536,-5.0606,-5.0597,-5.0665,-5.0675,-5.0697,-5.074,-5.0718,-5.0759,-5.075,-5.079,-5.0786,-5.0852,-5.0861,-5.0863,-5.0861,-5.0865,-5.0865,-5.0879,-5.0872,-5.0855,-5.0854,-5.0854,-5.0853,0,-5.0549,-5.0552,-5.0626,-5.0649,-5.0656,-5.0706,-5.0726,-5.0766,-5.0769,-5.0825,-5.0837,-5.0843,-5.0889,-5.0888,-5.094,-5.0937,-5.1018,-5.1007,-5.101,-5.1007,-5.1061,-5.1056,-5.1237,-5.126,-5.1101,-5.1102,-5.1104,0,-5.0628,-5.0676,-5.0704,-5.0733,-5.0749,-5.0795,-5.0822,-5.0816,-5.0845,-5.0879,-5.0914,-5.0959,-5.0995,-5.1071,-5.1078,-5.1118,-5.1109,-5.1169,-5.1114,-5.1117,-5.1109,-5.1107,-5.1111,-5.118,-5.1182,-5.1183,-5.1184,0,-5.0767,-5.0767,-5.0807,-5.0849,-5.0883,-5.0915,-5.0944,-5.0968,-5.0964,-5.0998,-5.1046,-5.1074,-5.1129,-5.1173,-5.1212,-5.1224,-5.1204,-5.1202,-5.1216,-5.1221,-5.122,-5.1221,-5.1039,-5.1198,-5.1196,-5.1195,-5.1195,-5.1194,-5.0868,-5.091,-5.0937,-5.0983,-5.1005,-5.1033,-5.1072,-5.1081,-5.1122,-5.1167,-5.116,-5.1214,-5.1238,-5.1288,-5.1305,-5.1346,-5.1324,-5.1345,-5.1351,-5.1356,-5.1362,-5.1214,-5.1353,-5.1352,-5.1352,-5.1352,-5.1352,0,-5.1006,-5.1023,-5.1066,-5.1108,-5.1145,-5.1124,-5.1155,-5.1186,-5.1235,-5.126,-5.1296,-5.1352,-5.1395,-5.1407,-5.1448,-5.1479,-5.1471,-5.149,-5.1488,-5.1491,-5.1379,-5.1362,-5.1496,-5.1496,-5.1496,-5.1496,-5.1496,-5.1496,-5.1083,-5.1152,-5.1154,-5.1234,-5.1249,-5.1303,-5.1323,-5.1348,-5.1369,-5.1432,-5.1469,-5.1476,-5.1496,-5.1539,-5.1578,-5.158,-5.1596,-5.1619,-5.1618,-5.1513,-5.1499,-5.1485,-5.1469,-5.1623,-5.1623,-5.1726,-5.1727,-5.1727]}]]